Lexington Weather

Lexington, Massachusetts, USA

71°F
9/22/2021 2:13pm 
  • Lexington Conditions: Light rain, Mist, Overcast
  • Temperature: 71.4°F / 21.9°CColder 3.6°F than last hour.
  • Dew Point: 69.3°FIncreased 0.6°Fsince last hour.
  • Relative Humidity: 93%Increased 12.0% since last hour.
  • Wind: Wind from W W 4 mph, 10-min avg: 2 mph, gust: 7 mph
  • Barometer: 30.09 in Steady
  • Visibility: 2 miles
  • Rain Today: 0.00 in
  •   

Regional Weather Roundup
for Boston / Norton, MA

        
000
ASUS41 KBOX 201704
RWRBOX

REGIONAL WEATHER ROUNDUP
NATIONAL WEATHER SERVICE BOSTON/NORTON MA
100 PM EDT MON SEP 20 2021

NOTE:  "FAIR" INDICATES FEW OR NO CLOUDS BELOW 12,000 FEET WITH NO 
SIGNIFICANT WEATHER AND/OR OBSTRUCTIONS TO VISIBILITY.

MAZALL-201800-
EASTERN MASSACHUSETTS
  
CITY           SKY/WX    TMP DP  RH WIND       PRES   REMARKS
BOSTON         MOSUNNY   71  59  65 E8        30.39F                  
BEVERLY        SUNNY     70  55  59 S6        30.38F                  
LAWRENCE       SUNNY     72  53  51 VRB3      30.40F                  
BEDFORD        MOSUNNY   72  54  53 SW6       30.37F                  
BLUE HILL      NOT AVBL                                               
NORWOOD        SUNNY     74  54  49 NE5       30.38S                  
MARSHFIELD     SUNNY     70  50  49 E6        30.39S                  
PLYMOUTH       SUNNY     71  51  49 NE10      30.39S                  
TAUNTON        MOSUNNY   71  55  56 CALM      30.38S                  
NEW BEDFORD    MOSUNNY   71  53  52 VRB5      30.37F                  
$$

MAZALL-201800-
CAPE COD AND THE ISLANDS
  
CITY           SKY/WX    TMP DP  RH WIND       PRES   REMARKS
FALMOUTH       SUNNY     70  48  46 NE12      30.39R                  
HYANNIS        SUNNY     72  52  49 N7        30.37S                  
CHATHAM        SUNNY     69  51  52 VRB7      30.40R                  
PROVINCETOWN   SUNNY     69  57  65 NE8       30.40S                  
NANTUCKET      SUNNY     71  50  47 NE10      30.38R                  
MARTHAS VNYRD  SUNNY     72  53  51 VRB7      30.38S                  
$$
 
MAZALL-201800-
CENTRAL AND WESTERN MASSACHUSETTS
  
CITY           SKY/WX    TMP DP  RH WIND       PRES   REMARKS
WORCESTER      MOSUNNY   69  53  56 SE6       30.39F                  
FITCHBURG      SUNNY     72  49  44 S7        30.39F                  
ORANGE         SUNNY     71  53  52 S10       30.38F                  
SPRINGFIELD    MOSUNNY   73  56  56 S7        30.36F                  
WESTFIELD      MOSUNNY   72  59  63 E5        30.37F                  
NORTH ADAMS    SUNNY     74  53  48 VRB3      30.34F                  
PITTSFIELD     SUNNY     71  54  54 VRB5      30.35S                  
$$
 
RIZALL-201800-
RHODE ISLAND
  
CITY           SKY/WX    TMP DP  RH WIND       PRES   REMARKS
PROVIDENCE     MOSUNNY   73  52  47 E5        30.39S                  
NEWPORT        SUNNY     70  53  54 SE8       30.38S                  
SMITHFIELD     SUNNY     70  52  52 N3        30.39F                  
WESTERLY       SUNNY     69  53  56 SE8       30.38S                  
$$
 
CTZALL-201800-
CONNECTICUT
  
CITY           SKY/WX    TMP DP  RH WIND       PRES   REMARKS
BRADLEY INTL   MOSUNNY   70  58  65 S5        30.37S                  
HARTFORD       SUNNY     74  58  57 W5        30.36F                  
BRIDGEPORT     SUNNY     72  61  68 SE9       30.36S                  
DANBURY        MOSUNNY   74  56  53 SE8       30.37S                  
GROTON         MOSUNNY   70  55  59 SE9       30.37S                  
NEW HAVEN      PTSUNNY   75  61  61 SE10      30.37S                  
CHESTER        FAIR      70  57  64 E7        30.38S                  
MERIDEN        PTSUNNY   74  58  57 VRB6      30.36S                  
WILLIMANTIC    CLOUDY    73  56  54 E6        30.37F                  
OXFORD         PTSUNNY   72  58  61 SE5       30.38S                  
$$

MEZ002-015-021-024-NHZ003-005-008-011-012-014-VTZ005-008-201800-
NORTHERN NEW ENGLAND
  
CITY           SKY/WX    TMP DP  RH WIND       PRES   REMARKS
PORTLAND ME    MOSUNNY   66  51  58 S7        30.40S                  
BANGOR ME      MOSUNNY   67  46  47 SW3       30.39S                  
CONCORD NH     SUNNY     71  50  47 S7        30.38F                  
MANCHESTER NH  MOSUNNY   72  49  44 S9        30.36F                  
NASHUA NH      MOSUNNY   71  52  50 VRB3      30.39F                  
PORTSMOUTH NH  MOSUNNY   69  53  57 SE7       30.40S                  
JAFFREY NH     MOSUNNY   71  54  54 SW8       30.38F                  
KEENE NH       SUNNY     72  53  51 S8        30.37F                  
BURLINGTON VT  SUNNY     73  50  44 S12       30.31F                  
MT. WASHINGTON MOSUNNY   55  30  38 S6          N/A                   
$$

NYZ052-076-201800-
EASTERN NEW YORK
  
CITY           SKY/WX    TMP DP  RH WIND       PRES   REMARKS
ALBANY         MOSUNNY   68  51  54 SE9       30.34F                  
NEW YORK CITY  PTSUNNY   74  57  55 E9        30.34S                  
$$
 
ANZALL-201800-
MARINE OBSERVATIONS
  
STATION/POSITION TIME  TEMP    WIND        PRES    VSBY  WAVE
                       AIR SEA DIR/SP/G                  HT/PER
                 (UTC) (F)     (DEG/KT/KT) (MB)    (MI)  (FT/S)
BOSTON BUOY      1640      67   90/  4/  6 1029.5S
BUZZARDS BAY     1600           50/  8/ 10 1030.0S
NANTUCKET SOUND  1640   68 72   80/ 10/ 14 1028.7R
MASS BAY-STELLWA 1604   65     120/  4/  6 1029.0S  1 7/8  3/11
ISLE OF SHOALS   1600   64     140/  6/  7 1029.0R
S OF BLOCK IS    1626      71                N/A           2/ 8
$$

......................KEY.........................
  SKY/WX - SKY CONDITION/PRESENT WEATHER
  TMP    - TEMPERATURE IN FAHRENHEIT
  DWPT   - DEWPOINT IN FAHRENHEIT
  RH     - RELATIVE HUMIDITY IN PERCENT
  WIND   - DIRECTION AND SPEED IN MPH
  PRES   - MEAN SEA LEVEL PRESSURE IN INCHES OF HG
  WCI    - WIND CHILL INDEX
  VSB    - VISIBILITY IN MILES
  HX     - HEAT INDEX
  TC     - TEMPERATURE IN CELSIUS
  VRB    - VARIABLE WIND DIRECTION
  N/A    - NOT AVAILABLE
  
      

Other recent Regional Weather Roundups

Wed Sep 22, 2:04pm

Wed Sep 22, 1:04pm

Wed Sep 22, 12:05pm

Wed Sep 22, 11:04am

Wed Sep 22, 10:04am

Wed Sep 22, 9:04am

Wed Sep 22, 8:04am

Wed Sep 22, 7:04am

Wed Sep 22, 6:04am

Wed Sep 22, 5:04am

Wed Sep 22, 4:04am

Wed Sep 22, 3:04am

Wed Sep 22, 2:04am

Wed Sep 22, 1:04am

Wed Sep 22, 12:04am

Tue Sep 21, 11:04pm

Tue Sep 21, 10:04pm

Tue Sep 21, 9:04pm

Tue Sep 21, 8:04pm

Tue Sep 21, 7:04pm

Tue Sep 21, 6:04pm

Tue Sep 21, 5:04pm

Tue Sep 21, 4:04pm

Tue Sep 21, 3:04pm

Tue Sep 21, 2:04pm

Tue Sep 21, 1:04pm

Tue Sep 21, 12:04pm

Tue Sep 21, 11:04am

Tue Sep 21, 10:04am

Tue Sep 21, 9:04am

Tue Sep 21, 8:04am

Tue Sep 21, 7:04am

Tue Sep 21, 6:04am

Tue Sep 21, 5:04am

Tue Sep 21, 4:04am

Tue Sep 21, 3:04am

Tue Sep 21, 2:04am

Tue Sep 21, 1:04am

Tue Sep 21, 12:04am

Mon Sep 20, 11:04pm

Mon Sep 20, 10:04pm

Mon Sep 20, 9:04pm

Mon Sep 20, 8:04pm

Mon Sep 20, 7:04pm

Mon Sep 20, 6:04pm

Mon Sep 20, 5:04pm

Mon Sep 20, 4:04pm

Mon Sep 20, 3:04pm

Mon Sep 20, 2:04pm

Mon Sep 20, 12:04pm

Mon Sep 20, 11:04am

Mon Sep 20, 10:04am

Mon Sep 20, 9:04am

Mon Sep 20, 7:04am

Mon Sep 20, 6:04am

Mon Sep 20, 5:04am

Mon Sep 20, 4:04am

Mon Sep 20, 3:04am

Mon Sep 20, 2:04am

Mon Sep 20, 1:04am

Mon Sep 20, 12:04am

Sun Sep 19, 11:04pm

Sun Sep 19, 10:04pm

Sun Sep 19, 9:04pm

Sun Sep 19, 8:04pm

Sun Sep 19, 7:04pm

Sun Sep 19, 6:04pm

Sun Sep 19, 5:04pm

Sun Sep 19, 4:04pm

Sun Sep 19, 3:04pm

Sun Sep 19, 2:05pm

Sun Sep 19, 1:04pm

Sun Sep 19, 12:04pm

Sun Sep 19, 11:04am

Sun Sep 19, 10:05am

Sun Sep 19, 9:04am

Sun Sep 19, 8:04am

Sun Sep 19, 7:04am

Sun Sep 19, 6:04am

Sun Sep 19, 5:04am

Sun Sep 19, 4:04am

Sun Sep 19, 3:04am

Sun Sep 19, 2:04am

Sun Sep 19, 1:04am

Sun Sep 19, 12:04am

Sat Sep 18, 11:05pm

Sat Sep 18, 10:04pm

Sat Sep 18, 9:04pm

Sat Sep 18, 8:04pm

Sat Sep 18, 7:04pm

Sat Sep 18, 6:04pm

Sat Sep 18, 5:04pm

Sat Sep 18, 4:04pm

Sat Sep 18, 3:04pm

Sat Sep 18, 2:04pm

Sat Sep 18, 1:04pm

Sat Sep 18, 12:04pm

Sat Sep 18, 11:04am

Sat Sep 18, 10:04am

Sat Sep 18, 9:04am

Sat Sep 18, 8:04am

Sat Sep 18, 7:04am

Sat Sep 18, 6:04am

Sat Sep 18, 5:04am

Sat Sep 18, 4:04am

Sat Sep 18, 3:04am

Sat Sep 18, 2:04am

Sat Sep 18, 1:04am

Sat Sep 18, 12:04am

Fri Sep 17, 11:04pm

Fri Sep 17, 10:04pm

Fri Sep 17, 9:04pm

Fri Sep 17, 8:04pm

Fri Sep 17, 7:04pm

Fri Sep 17, 6:04pm

Fri Sep 17, 5:04pm

Fri Sep 17, 4:04pm

Fri Sep 17, 3:04pm

Fri Sep 17, 2:04pm

Fri Sep 17, 1:04pm

Fri Sep 17, 12:05pm

Fri Sep 17, 11:04am

Fri Sep 17, 10:04am

Fri Sep 17, 9:04am

Fri Sep 17, 8:04am

Fri Sep 17, 7:04am

Fri Sep 17, 6:04am

Fri Sep 17, 5:04am

Fri Sep 17, 4:04am

Fri Sep 17, 3:04am

Fri Sep 17, 2:04am

Fri Sep 17, 1:04am

Fri Sep 17, 12:04am

Thu Sep 16, 11:04pm

Thu Sep 16, 10:04pm

Thu Sep 16, 9:04pm

Thu Sep 16, 8:04pm

Thu Sep 16, 7:04pm

Thu Sep 16, 6:04pm

Thu Sep 16, 5:04pm

Thu Sep 16, 4:04pm

Thu Sep 16, 3:04pm

Thu Sep 16, 2:04pm

Thu Sep 16, 1:05pm

Thu Sep 16, 12:04pm

Thu Sep 16, 11:05am

Thu Sep 16, 10:05am

Thu Sep 16, 9:04am

Thu Sep 16, 8:04am

Thu Sep 16, 7:04am

Thu Sep 16, 6:04am

Thu Sep 16, 5:04am

Thu Sep 16, 4:04am

Thu Sep 16, 3:04am

Thu Sep 16, 2:04am

Thu Sep 16, 1:04am

Thu Sep 16, 12:04am

Wed Sep 15, 11:04pm

Wed Sep 15, 10:04pm

Wed Sep 15, 9:04pm

Wed Sep 15, 8:04pm

Wed Sep 15, 7:04pm

Wed Sep 15, 6:04pm

Wed Sep 15, 5:05pm

Wed Sep 15, 4:04pm

Wed Sep 15, 3:04pm

Meta data:

ID: 5c92e050-105f-4a1e-946a-82c2ecde7957
Link: https://api.weather.gov/products/5c92e050-105f-4a1e-946a-82c2ecde7957